#timestamp,LO_Frequency,Hit,StdDev 
1634173215.1,286046999.0,N
1634173235.9,286046996.9,N
1634173255.7,286046999.3,N
1634173275.5,286047001.1,N
1634173295.4,286047000.0,N
1634173315.2,286047000.1,N
1634173335.0,286047002.4,N
1634173335.9,286047002.4,N
1634173355.8,286047002.1,N
1634173375.6,286047004.3,N
1634173395.5,286047003.8,N
1634173415.3,286047003.9,N
1634173435.1,286047004.3,N
1634173455.9,286047002.8,N
1634173475.7,286047003.7,N
1634173495.5,286047003.3,N
1634173515.4,286047005.4,N
1634173535.2,286047005.0,N
1634173555.1,286047007.5,Y
1634173556.0,286047007.5,P
1634173575.8,286047003.5,N
1634173595.6,286047001.4,N
1634173615.5,286047003.6,N
1634173635.3,286047003.5,N
1634173655.2,286047000.4,N
1634173675.9,286047001.7,N
1634173695.7,286047004.4,N
1634173715.6,286047002.9,N
1634173735.4,286047004.2,N
1634173755.2,286047003.4,N
1634173775.1,286047004.1,N
1634173776.0,286047004.1,N
1634173795.8,286047002.1,N
1634173815.7,286047005.5,Y
1634173835.5,286047002.0,P
1634173855.3,286047001.8,N
1634173875.2,286047004.2,P
1634173895.0,286047001.8,N
1634173895.9,286047001.8,N
1634173915.8,286047003.1,Y
1634173935.6,286047000.1,P
1634173955.4,286047000.1,N
1634173975.3,286046998.5,N
1634173995.1,286047000.0,N
1634174015.8,286046998.7,N
1634174035.7,286047000.3,N
1634174055.5,286046999.8,N
1634174075.4,286047004.3,Y
1634174095.2,286047001.5,P
1634174115.0,286047003.9,P
1634174115.9,286047003.9,N
1634174135.8,286047001.8,N
1634174155.6,286047001.5,N
1634174175.5,286047002.1,N
1634174195.3,286047002.8,N
1634174215.1,286047002.1,N
1634174235.9,286047002.1,N
1634174255.7,286047003.5,Y
1634174275.5,286047004.3,P
1634174295.4,286047003.5,P
1634174315.2,286047002.3,N
1634174335.1,286046999.9,N
1634174336.0,286046999.9,N
1634174355.8,286047000.6,N
1634174375.6,286047000.3,N
1634174395.5,286047002.2,N
1634174415.3,286046998.2,N
1634174435.1,286047000.3,N
1634174455.9,286047000.6,N
1634174475.7,286046999.0,N
1634174495.6,286046997.0,N
1634174515.4,286046999.2,N
1634174535.2,286046998.3,N
1634174555.1,286046999.2,N
1634174556.0,286046999.2,N
1634174575.8,286046996.6,N
1634174595.7,286046997.1,N
1634174615.5,286046999.0,N
1634174635.3,286047000.6,N
1634174655.2,286047000.0,N
1634174675.9,286047001.9,N
1634174695.7,286047001.5,N
1634174715.6,286046999.9,N
1634174735.4,286047001.9,N
1634174755.2,286047000.5,N
1634174775.1,286047002.1,N
1634174776.0,286047002.1,N
1634174795.8,286047002.2,N
1634174815.7,286047000.8,N
1634174835.5,286046999.2,N
1634174855.3,286047000.9,N
1634174875.2,286047003.7,N
1634174895.0,286047005.5,Y
1634174895.9,286047005.5,P
1634174915.8,286047004.0,N
1634174935.6,286047001.3,N
1634174955.4,286047002.5,N
1634174975.3,286047002.7,N
1634174995.1,286047002.4,N
1634175015.8,286046999.4,N
1634175035.7,286046999.3,N
1634175055.5,286046996.5,N
1634175075.4,286046998.4,N
1634175095.2,286046999.8,N
1634175115.0,286047000.5,N
1634175115.9,286047000.5,N
1634175135.8,286047001.0,N
1634175155.6,286047000.8,N
1634175175.4,286047000.1,N
1634175195.3,286046998.5,N
1634175215.1,286046996.9,N
1634175235.9,286046996.9,N
1634175255.7,286046998.8,N
1634175275.5,286046999.9,N
1634175295.4,286047000.0,N
1634175315.2,286047000.2,N
1634175335.1,286047003.3,N
1634175336.0,286047003.3,N
1634175355.8,286047003.8,N
1634175375.6,286047004.1,N
1634175395.5,286047001.3,N
1634175415.3,286047002.4,N
1634175435.1,286047004.2,N
1634175455.9,286047002.9,N
1634175475.7,286047004.0,N
1634175495.6,286047003.1,N
1634175515.4,286047011.9,Y
1634175535.2,286047004.3,P
1634175555.1,286047003.8,N
1634175556.0,286047003.8,N
1634175575.8,286047004.1,Y
1634175595.7,286047000.3,P
1634175615.5,286047000.2,N
1634175635.3,286046998.4,N
1634175655.2,286047000.8,N
1634175675.0,286047000.5,N
1634175675.9,286047000.5,N
1634175695.8,286047000.5,N
1634175715.6,286047001.2,N
1634175735.4,286047000.4,N
1634175755.3,286047002.8,N
1634175775.1,286047002.7,N
1634175795.8,286047000.4,N
1634175815.7,286047000.7,N
1634175835.5,286047001.6,N
1634175855.4,286047003.4,N
1634175875.2,286047003.7,N
1634175895.0,286047002.3,N
1634175895.9,286047002.3,N
1634175915.8,286047002.4,N
1634175935.6,286047004.3,Y
1634175955.5,286047002.4,P
1634175975.3,286047000.6,N
1634175995.1,286046999.9,N
1634176015.9,286047002.4,N
1634176035.7,286047000.4,N
1634176055.5,286047001.9,N
1634176075.4,286047001.9,N
1634176095.2,286047004.2,Y
1634176115.1,286047001.4,P
1634176116.0,286047001.4,P
1634176135.8,286047002.4,P
1634176155.6,286046999.8,N
1634176175.5,286047000.6,N
1634176195.3,286047002.0,N
1634176215.1,286047002.8,Y
1634176235.9,286047002.4,P
1634176255.7,286047004.4,P
1634176275.6,286047000.1,N
1634176295.4,286046999.3,N
1634176315.2,286046999.2,N
1634176335.1,286046998.7,N
1634176336.0,286046998.7,N
1634176355.8,286046999.2,N
1634176375.7,286046998.6,N
1634176395.5,286047000.4,N
1634176415.3,286046999.2,N
1634176435.2,286046996.5,N
1634176455.9,286046996.9,N
1634176475.7,286047001.2,N
1634176495.6,286047000.7,N
1634176515.4,286047000.9,N
1634176535.3,286047002.6,N
1634176555.1,286047004.2,N
1634176556.0,286047004.2,N
1634176575.8,286047003.8,N
1634176595.7,286047004.1,N
1634176615.5,286047002.0,N
1634176635.3,286047003.5,N
1634176655.2,286047004.1,N
1634176675.0,286047003.6,N
1634176675.9,286047003.6,N
1634176695.8,286047003.6,N
1634176715.6,286047003.9,N
1634176735.4,286047004.2,N
1634176755.3,286047001.3,N
1634176775.1,286047001.9,N
1634176795.9,286047001.3,N
